Time,TemperatureF,DewpointF,PressureIn,WindDirection,WindDirectionDegrees,WindSpeedMPH,WindSpeedGustMPH,Humidity,HourlyPrecipIn,Conditions,Clouds,dailyrainin,SolarRadiationWatts/m^2,SoftwareType,DateUTC
2013-08-30 02:50:00,66.0,52.0,-100.00,SSE,159,4.0,7.0,61,0.00,,,-99.99,0.000000,,2013-08-30 08:50:00,
2013-08-30 03:22:00,66.0,52.0,-100.00,SSE,159,4.0,7.0,61,0.00,,,-99.99,0.000000,,2013-08-30 09:22:00,
2013-08-30 03:33:00,66.0,52.0,-100.00,SSE,159,4.0,7.0,61,0.00,,,-99.99,0.000000,,2013-08-30 09:33:00,
2013-08-30 03:44:00,66.0,52.0,-100.00,SSE,159,4.0,7.0,61,0.00,,,-99.99,0.000000,,2013-08-30 09:44:00,
2013-08-30 04:23:00,64.0,51.0,-100.00,SSE,151,4.0,5.0,63,0.00,,,-99.99,0.000000,,2013-08-30 10:23:00,
2013-08-30 04:53:00,66.0,49.0,-100.00,South,182,5.0,7.0,54,0.00,,,-99.99,0.000000,,2013-08-30 10:53:00,
2013-08-30 07:50:00,67.0,55.0,-100.00,South,187,4.0,7.0,65,0.00,,,-99.99,135.000000,,2013-08-30 13:50:00,
2013-08-30 08:21:00,67.0,55.0,-100.00,South,187,4.0,7.0,65,0.00,,,-99.99,135.000000,,2013-08-30 14:21:00,
2013-08-30 08:31:00,67.0,55.0,-100.00,South,187,4.0,7.0,65,0.00,,,-99.99,135.000000,,2013-08-30 14:31:00,
2013-08-30 08:42:00,67.0,55.0,-100.00,South,187,4.0,7.0,65,0.00,,,-99.99,135.000000,,2013-08-30 14:42:00,
2013-08-30 09:54:00,78.0,57.0,-100.00,WSW,253,0.0,2.0,48,0.00,,,-99.99,334.000000,,2013-08-30 15:54:00,
2013-08-30 10:53:00,79.0,57.0,-100.00,West,279,2.0,4.0,47,0.00,,,-99.99,625.000000,,2013-08-30 16:53:00,
2013-08-30 11:52:00,83.0,60.0,-100.00,WSW,242,2.0,4.0,47,0.00,,,-99.99,760.000000,,2013-08-30 17:52:00,
2013-08-30 12:50:00,85.0,57.0,-100.00,SSW,195,4.0,6.0,38,0.00,,,-99.99,852.000000,,2013-08-30 18:50:00,
2013-08-30 13:21:00,85.0,57.0,-100.00,SSW,195,4.0,6.0,38,0.00,,,-99.99,852.000000,,2013-08-30 19:21:00,
2013-08-30 13:32:00,85.0,57.0,-100.00,SSW,195,4.0,6.0,38,0.00,,,-99.99,852.000000,,2013-08-30 19:32:00,
2013-08-30 13:42:00,85.0,57.0,-100.00,SSW,195,4.0,6.0,38,0.00,,,-99.99,852.000000,,2013-08-30 19:42:00,
2013-08-30 15:54:00,90.0,55.0,-100.00,WNW,288,4.0,7.0,31,0.00,,,-99.99,728.000000,,2013-08-30 21:54:00,
2013-08-30 17:22:00,89.0,57.0,-100.00,ESE,111,4.0,7.0,34,0.00,,,-99.99,508.000000,,2013-08-30 23:22:00,
2013-08-30 17:50:00,88.0,56.0,-100.00,SE,137,4.0,6.0,34,0.00,,,-99.99,352.000000,,2013-08-30 23:50:00,
2013-08-30 18:21:00,88.0,56.0,-100.00,SE,137,4.0,6.0,34,0.00,,,-99.99,352.000000,,2013-08-31 00:21:00,
2013-08-30 18:32:00,88.0,56.0,-100.00,SE,137,4.0,6.0,34,0.00,,,-99.99,352.000000,,2013-08-31 00:32:00,
2013-08-30 18:42:00,88.0,56.0,-100.00,SE,137,4.0,6.0,34,0.00,,,-99.99,352.000000,,2013-08-31 00:42:00,
2013-08-30 22:50:00,71.0,58.0,-100.00,SSE,156,3.0,6.0,63,0.00,,,-99.99,0.000000,,2013-08-31 04:50:00,
2013-08-30 23:23:00,71.0,58.0,-100.00,SSE,156,3.0,6.0,63,0.00,,,-99.99,0.000000,,2013-08-31 05:23:00,
2013-08-30 23:34:00,71.0,58.0,-100.00,SSE,156,3.0,6.0,63,0.00,,,-99.99,0.000000,,2013-08-31 05:34:00,
2013-08-30 23:42:00,71.0,58.0,-100.00,SSE,156,3.0,6.0,63,0.00,,,-99.99,0.000000,,2013-08-31 05:42:00,